CW0811 Weather Reports


time (UTC)temp
C
wind
direction
speed
KPH
gust
KPH
rain 1hr
cm
rain 24hr
cm
rain mn
cm
humidity
%
barometer
mb
20260504174542 21 153 4.8 12.9 0.00 0.00 0.00 30 1008.4
20260504173041 21 201 6.4 14.5 0.00 0.00 0.00 31 1008.6
20260504171541 21 263 1.6 12.9 0.00 0.00 0.00 30 1009.0
20260504081541 6 0 0.0 1.6 0.00 0.00 0.00 69 1010.5
20260504044547 4 0 0.0 0.0 0.00 0.00 0.00 71 1010.9
20260504043040 5 0 0.0 0.0 0.00 0.00 0.00 72 1011.0
20260504041547 5 0 0.0 0.0 0.00 0.00 0.00 69 1010.9
20260504034557 5 0 0.0 0.0 0.00 0.00 0.00 67 1010.8
20260504033105 5 0 0.0 0.0 0.00 0.00 0.00 67 1010.7
20260504031541 5 0 0.0 0.0 0.00 0.00 0.00 66 1010.4
20260504030046 6 0 0.0 0.0 0.00 0.00 0.00 66 1010.6
20260504024545 6 0 0.0 0.0 0.00 0.00 0.00 60 1010.7
20260504023059 6 0 0.0 0.0 0.00 0.00 0.00 62 1010.4
20260504021542 7 0 0.0 0.0 0.00 0.00 0.00 62 1010.2
20260504020041 7 0 0.0 0.0 0.00 0.00 0.00 55 1010.3
20260504014548 7 0 0.0 0.0 0.00 0.00 0.00 54 1010.1
20260504013046 8 0 0.0 0.0 0.00 0.00 0.00 60 1009.9
20260504011543 8 0 0.0 0.0 0.00 0.00 0.00 55 1009.8
20260504010051 7 0 0.0 0.0 0.00 0.00 0.00 54 1009.8
20260504004558 8 0 0.0 0.0 0.00 0.00 0.00 56 1009.6
20260504003041 8 0 0.0 0.0 0.00 0.00 0.00 54 1009.1
20260504001540 9 0 0.0 0.0 0.00 0.00 0.00 45 1008.9
20260504000049 10 0 0.0 1.6 0.00 0.00 0.00 49 1008.8
20260503234546 11 0 0.0 1.6 0.00 0.00 0.00 40 1008.7
20260503233042 11 0 0.0 0.0 0.00 0.00 0.00 37 1008.6
20260503231541 12 0 0.0 3.2 0.00 0.00 0.00 36 1008.3
20260503230041 12 213 3.2 8.0 0.00 0.00 0.00 33 1008.3
20260503224547 12 303 3.2 16.1 0.00 0.00 0.00 34 1008.3
20260503223051 12 238 0.0 8.0 0.00 0.00 0.00 38 1008.2
20260503221545 12 0 0.0 6.4 0.00 0.00 0.00 37 1008.1
20260503220046 12 319 3.2 9.7 0.00 0.00 0.00 35 1008.2
20260503214540 12 360 3.2 11.3 0.00 0.00 0.00 35 1008.4
20260503213057 12 297 3.2 12.9 0.00 0.00 0.00 36 1008.2
20260503211548 12 329 4.8 12.9 0.00 0.00 0.00 34 1008.2
20260503210054 13 165 3.2 17.7 0.00 0.00 0.00 34 1008.1
20260503204550 13 153 3.2 14.5 0.00 0.00 0.00 33 1008.2
20260503203040 12 166 4.8 14.5 0.00 0.00 0.00 34 1008.2
20260503201546 12 34 4.8 22.5 0.00 0.00 0.00 33 1008.2
20260503200054 12 233 3.2 14.5 0.00 0.00 0.00 35 1008.0
20260503194546 12 9 4.8 17.7 0.00 0.00 0.00 33 1008.1
20260503193051 13 230 4.8 16.1 0.00 0.00 0.00 35 1008.0
20260503191542 13 259 3.2 16.1 0.00 0.00 0.00 35 1007.9
20260503190040 12 269 4.8 19.3 0.00 0.00 0.00 33 1007.9
20260503184556 11 319 3.2 16.1 0.00 0.03 0.00 35 1008.1
20260503183059 12 247 4.8 14.5 0.00 0.03 0.00 35 1008.1
20260503181542 12 336 3.2 16.1 0.00 0.03 0.00 36 1008.0
20260503180045 12 155 3.2 12.9 0.00 0.03 0.00 38 1007.8